Flag for China Weather past 2 weeks in Changchun, Jilin, China

Now
50 °F

Light rain. Overcast.


Feels Like: 50 °F
Forecast: 43 / 62 °F
Wind: 1 mph from North

Location: Changchun Airport

Current Time: Sep 24, 2014 at 2:56:26 AM

Latest Report: Sep 24, 2014 at 2:00 AM


Visibility: 4 mi

Pressure: 30.04 "Hg

Humidity: 100%

Dew point: 50 °F

Location of ChangchunLocation

Historic Weather in Changchun — Graph

°F

Changchun temperature yesterday

Maximum temperature yesterday: 63 °F (at 9:00 AM)
Minimum temperature yesterday: 52 °F (at 11:00 PM)
Average temperature yesterday: 57 °F

Past Weeks' High & Low Weather Summary

 TemperatureHumidityPressure
High81 °F (Sep 13, 2:00 PM)100% (Sep 23, 11:00 PM)30.18 "Hg (Sep 23, 11:00 PM)
Low41 °F (Sep 16, 4:00 AM)18% (Sep 15, 1:00 PM)29.77 "Hg (Sep 9, 1:00 AM)
Average59 °F60%30.02 "Hg
* Reported Sep 9 1:00 AM — Sep 24 1:00 AM, Changchun, Weather by CustomWeather, © 2014

Note: Actual official high and low records may vary slightly from our data, if they occured in-between our weather recording intervals... More about our weather records

Advertising

Changchun weather history for previous 24 hours

 ConditionsComfort  
Time TempWeatherWind HumidityBarometerVisibility
1:00 AM
Sep 24
50 °FLight rain. Overcast.3 mph100%30.04 "Hg4 mi
12:00 AM52 °FLight rain. Overcast.3 mph94%30.04 "Hg4 mi
11:00 PM
Sep 23
52 °FLight rain. Fog.3 mph100%30.07 "Hg2 mi
10:00 PM55 °FLight rain. Fog.3 mph94%30.07 "Hg1 mi
9:00 PM55 °FLight rain. Fog.1 mph94%30.07 "Hg1 mi
8:00 PM55 °FFog.1 mph94%30.09 "Hg1 mi
7:00 PM55 °FLight rain. Fog.1 mph94%30.09 "Hg1 mi
6:00 PM55 °FLight rain. Fog.1 mph94%30.07 "Hg1 mi
5:00 PM55 °FLight rain. Fog.1 mph94%30.09 "Hg1 mi
4:00 PM55 °FLight rain. Fog.3 mph94%30.07 "Hg1 mi
3:00 PM59 °FMore clouds than sun.3 mph82%30.07 "Hg4 mi
2:00 PM59 °FMore clouds than sun.6 mph82%30.07 "Hg4 mi
1:00 PM59 °FFog.3 mph88%30.07 "Hg3 mi
12:00 PM59 °FLight rain. Fog.3 mph82%30.09 "Hg3 mi
11:00 AM59 °FLight rain. Fog.1 mph82%30.12 "Hg2 mi
10:00 AM63 °FFog.3 mph64%30.09 "Hg3 mi
9:00 AM63 °FFog.1 mph64%30.09 "Hg2 mi
8:00 AM61 °FFog.1 mph68%30.09 "Hg2 mi
7:00 AM57 °FScattered clouds.1 mph77%30.09 "Hg4 mi
6:00 AM55 °FPartly sunny.3 mph77%30.09 "Hg4 mi
5:00 AM55 °FClear.1 mph77%30.07 "Hg10 mi
4:00 AM54 °FClear.3 mph82%30.07 "Hg10 mi
3:00 AM55 °FClear.3 mph77%30.07 "Hg10 mi
2:00 AM59 °FClear.6 mph77%30.07 "Hg10 mi
Weather by CustomWeather, © 2014

See weather overviewHow to use our weather pages